Location: Nebraska Star Party
(42.6000°N, 100.8833°W)
Time: 23:06:56
(UTC-06:00)

Amateur Radio Satellites - All Passes

Search period start: 22 February 2017 22:36
Search period end: 23 February 2017 22:36
Location: Nebraska Star Party, 42.6000°N, 100.8833°W

Satellite Date Start Highest point End Downlink Frequencies (MHz)
Time Altitude Azimuth
SO-50 22 Feb 22:42:16 22:46:01 24° 113° (ESE) 22:49:45 436.795
ESTCUBE 1 22 Feb 22:46:18 22:50:28 37° 70° (ENE) 22:54:38 437.505/2401.250
UNISAT 6 22 Feb 23:11:43 23:16:25 70° 286° (WNW) 23:21:04 437.425
TIGRISAT 22 Feb 23:12:55 23:17:38 73° 285° (WNW) 23:22:18 435.000
EO-79 22 Feb 23:14:01 23:14:42 10° 89° (E) 23:15:23 145.935-145.965
RS-15 22 Feb 23:20:14 23:29:56 25° 1° (N) 23:39:35 29.354- 29.394
VELOX 1 22 Feb 23:24:35 23:28:28 32° 69° (ENE) 23:32:21 145.980
DX 1 22 Feb 23:27:08 23:29:48 16° 63° (ENE) 23:32:28 434.975-435.025
POLYITAN 1 22 Feb 23:28:49 23:31:31 16° 92° (E) 23:34:11 437.675
AIST 2D 22 Feb 23:29:56 23:32:54 24° 95° (E) 23:35:49 435.315
NANOSAT C BR1 22 Feb 23:31:10 23:33:44 15° 91° (E) 23:36:18 145.865
QB50P2 22 Feb 23:31:24 23:34:25 18° 93° (E) 23:37:24 145.880/145.840
O/OREOS (USA 219) 22 Feb 23:33:42 23:37:59 48° 107° (ESE) 23:42:19 437.305
FO-29 22 Feb 23:42:50 23:50:40 88° 104° (ESE) 23:57:47 435.910
UKube-1 22 Feb 23:44:48 23:47:41 18° 64° (ENE) 23:50:35 .
SPROUT 22 Feb 23:53:56 23:58:02 51° 72° (ENE) 00:02:11 437.525
BUGSAT 1 23 Feb 00:13:58 00:16:19 14° 91° (E) 00:18:40 437.445
YUBILEINY 23 Feb 00:17:44 00:24:10 24° 280° (W) 00:30:35 435.215
SO-50 23 Feb 00:21:48 00:26:15 43° 310° (NW) 00:30:40 436.795
ESTCUBE 1 23 Feb 00:23:53 00:27:22 22° 266° (W) 00:30:52 437.505/2401.250
50 SAT 23 Feb 00:33:27 00:36:55 56° 260° (W) 00:40:23 437.505
DUCHIFAT 1 23 Feb 00:39:11 00:43:29 80° 104° (ESE) 00:47:44 145.980
EO-79 23 Feb 00:46:39 00:50:56 71° 286° (WNW) 00:55:11 145.935-145.965
VELOX 1 23 Feb 01:01:22 01:04:56 24° 265° (W) 01:08:31 145.980
DX 1 23 Feb 01:01:24 01:05:35 50° 260° (W) 01:09:49 434.975-435.025
AIST 2D 23 Feb 01:03:17 01:06:00 21° 291° (WNW) 01:08:42 435.315
POLYITAN 1 23 Feb 01:03:24 01:07:32 46° 288° (WNW) 01:11:38 437.675
NANOSAT C BR1 23 Feb 01:05:36 01:09:43 47° 288° (WNW) 01:13:48 145.865
QB50P2 23 Feb 01:06:20 01:10:21 40° 289° (WNW) 01:14:21 145.880/145.840
PCSat 23 Feb 01:13:40 01:18:05 25° 45° (NE) 01:22:29 145.827
O/OREOS (USA 219) 23 Feb 01:14:27 01:17:40 19° 306° (NW) 01:20:55 437.305
UKube-1 23 Feb 01:19:16 01:23:22 44° 260° (W) 01:27:31 .
FO-29 23 Feb 01:29:08 01:34:36 22° 305° (NW) 01:39:50 435.910
SPROUT 23 Feb 01:31:56 01:34:15 14° 269° (W) 01:36:35 437.525
RS-15 23 Feb 01:35:38 01:47:08 41° 35° (NE) 01:58:16 29.354- 29.394
BUGSAT 1 23 Feb 01:47:50 01:51:57 50° 288° (WNW) 01:56:04 437.445
ITUPSAT 1 23 Feb 01:52:21 01:56:28 29° 67° (ENE) 02:00:36 437.325
BEESAT 23 Feb 02:00:34 02:04:54 35° 68° (ENE) 02:09:15 436.000
Oscar 19 23 Feb 02:14:08 02:19:16 73° 102° (ESE) 02:24:22 437.125/150
DUCHIFAT 1 23 Feb 02:17:34 02:18:30 11° 300° (WNW) 02:19:25 145.980
Gurwin Techsat 1B 23 Feb 02:36:58 02:42:18 66° 102° (ESE) 02:47:34 435.225
ITAMSAT 1 23 Feb 02:43:42 02:46:17 14° 89° (E) 02:48:51 435.822/435.867
MOZHAYETS 4 23 Feb 02:45:48 02:49:59 34° 69° (ENE) 02:54:11
AO-7 23 Feb 02:55:40 03:01:09 19° 90° (E) 03:06:35 .
PCSat 23 Feb 02:56:31 03:01:52 59° 245° (WSW) 03:07:10 145.827
ITUPSAT 1 23 Feb 03:29:55 03:34:12 32° 263° (W) 03:38:31 437.325
KKS-1 23 Feb 03:36:38 03:40:31 31° 68° (ENE) 03:44:25 437.445
BEESAT 23 Feb 03:38:44 03:42:43 26° 265° (W) 03:46:44 436.000
CUBESAT XI-V 23 Feb 03:38:47 03:42:13 21° 65° (ENE) 03:45:39 437.345
RS-15 23 Feb 03:48:34 04:00:52 77° 242° (WSW) 04:12:38 29.354- 29.394
Oscar 19 23 Feb 03:55:01 03:57:58 16° 300° (WNW) 04:00:55 437.125/150
M-CUBED/EXP-1 PRIME 23 Feb 04:05:17 04:07:43 19° 63° (ENE) 04:10:08 437.505
STARS 23 Feb 04:17:59 04:22:00 38° 70° (ENE) 04:26:04 437.465
Gurwin Techsat 1B 23 Feb 04:18:11 04:21:42 18° 299° (WNW) 04:25:11 435.225
ITAMSAT 1 23 Feb 04:21:03 04:26:19 76° 286° (WNW) 04:31:31 435.822/435.867
MOZHAYETS 4 23 Feb 04:23:21 04:27:10 25° 266° (W) 04:31:01
AO-85 23 Feb 04:25:53 04:28:45 16° 112° (ESE) 04:31:30 145.980
AO-7 23 Feb 04:46:34 04:54:56 90° 289° (WNW) 05:03:14 .
KKS-1 23 Feb 05:13:25 05:17:04 25° 265° (W) 05:20:46 437.445
CUBESAT XI-V 23 Feb 05:14:50 05:19:17 44° 262° (W) 05:23:45 437.345
M-CUBED/EXP-1 PRIME 23 Feb 05:39:29 05:42:08 22° 258° (WSW) 05:44:45 437.505
LilacSat-2 23 Feb 05:52:52 05:54:48 13° 91° (E) 05:56:42 437.200
STARS 23 Feb 05:55:14 05:58:28 20° 266° (W) 06:01:44 437.465
NUDT-PHONESAT 23 Feb 06:00:17 06:01:56 12° 91° (E) 06:03:34 437.300
ITAMSAT 1 23 Feb 06:03:30 06:04:52 11° 304° (NW) 06:06:13 435.822/435.867
RS-15 23 Feb 06:03:41 06:11:08 19° 264° (W) 06:18:28 29.354- 29.394
AO-85 23 Feb 06:04:21 06:08:49 56° 306° (NW) 06:12:59 145.980
STRAND 1 23 Feb 06:15:05 06:19:15 26° 65° (ENE) 06:23:26 437.568
AO-7 23 Feb 06:40:39 06:46:40 23° 309° (NW) 06:52:39 .
CUTE-I 23 Feb 06:49:48 06:55:04 53° 100° (E) 07:00:18 437.470
KAITUO 1B 23 Feb 06:54:20 06:58:05 57° 100° (E) 07:01:47 145.475/437.950
XW-2F 23 Feb 06:54:46 06:58:36 71° 102° (ESE) 07:02:22 145.980 - 146.000
XW-2D 23 Feb 06:57:50 07:01:41 82° 102° (ESE) 07:05:29 145.860 - 145.880
DOVE 4 23 Feb 07:00:53 07:05:32 88° 109° (ESE) 07:10:28 437.250
XW-2B 23 Feb 07:02:49 07:06:40 89° 284° (WNW) 07:10:28 145.730 - 145.750
BEESAT 3 23 Feb 07:07:12 07:10:50 39° 117° (ESE) 07:14:33 437.485
XW-2C 23 Feb 07:11:22 07:15:12 69° 285° (WNW) 07:18:59 145.795 - 145.815
SO-50 23 Feb 07:12:12 07:16:08 28° 45° (NE) 07:20:00 436.795
LilacSat-2 23 Feb 07:25:38 07:29:18 44° 288° (WNW) 07:32:58 437.200
NUDT-PHONESAT 23 Feb 07:32:30 07:36:08 45° 287° (WNW) 07:39:42 437.300
BEESAT 2 23 Feb 07:39:53 07:43:31 37° 117° (ESE) 07:47:13 435.950
XW-2A 23 Feb 07:51:31 07:54:54 51° 100° (E) 07:58:17 145.665 - 145.685
STRAND 1 23 Feb 07:53:21 07:58:11 41° 262° (W) 08:03:04 437.568
AAUSAT CUBESAT 2 23 Feb 08:00:31 08:02:36 14° 91° (E) 08:04:42 437.432
HO-68 23 Feb 08:01:49 08:08:43 49° 100° (E) 08:15:34 435.675
SEEDS 23 Feb 08:02:32 08:06:12 29° 96° (E) 08:09:51 437.485
O/OREOS (USA 219) 23 Feb 08:05:01 08:07:19 14° 50° (NE) 08:09:38 437.305
FO-29 23 Feb 08:17:43 08:17:59 10° 45° (NE) 08:18:15 435.910
CUBEBUG 2 23 Feb 08:28:13 08:32:44 41° 98° (E) 08:37:12 437.445
KAITUO 1B 23 Feb 08:30:28 08:31:36 11° 297° (WNW) 08:32:44 145.475/437.950
CUTE-I 23 Feb 08:30:39 08:34:44 22° 297° (WNW) 08:38:48 437.470
CUTE 1.7 + AOD 2 23 Feb 08:35:45 08:39:59 75° 284° (WNW) 08:44:10 437.475
UNISAT 6 23 Feb 08:37:12 08:39:10 13° 60° (ENE) 08:41:08 437.425
TIGRISAT 23 Feb 08:38:30 08:40:15 12° 60° (ENE) 08:42:01 435.000
ISS 23 Feb 08:40:47 08:43:19 21° 134° (SE) 08:45:51 437.550
DOVE 4 23 Feb 08:41:15 08:42:37 11° 299° (WNW) 08:43:59 437.250
BEESAT 3 23 Feb 08:45:31 08:48:36 22° 315° (NW) 08:51:44 437.485
AO-73 23 Feb 08:51:49 08:55:34 25° 94° (E) 08:59:14 145.935
SO-50 23 Feb 08:52:30 08:56:39 37° 244° (WSW) 09:00:45 436.795
Oscar 11 23 Feb 09:01:40 09:05:18 26° 95° (E) 09:08:56 .
PRISM 23 Feb 09:09:16 09:13:18 62° 73° (ENE) 09:17:20 437.425
UWE-3 23 Feb 09:10:45 09:15:27 72° 102° (ESE) 09:20:04 435.000/436.395/437.385
Tancredo 1 23 Feb 09:11:35 09:14:41 41° 140° (SE) 09:17:47 437.200
BEESAT 2 23 Feb 09:18:11 09:21:24 23° 315° (NW) 09:24:41 435.950
XW-2A 23 Feb 09:26:41 09:27:13 10° 296° (WNW) 09:27:45 145.665 - 145.685
YUBILEINY 23 Feb 09:29:09 09:34:05 17° 75° (ENE) 09:39:01 435.215
AAUSAT CUBESAT 2 23 Feb 09:34:23 09:38:22 49° 287° (WNW) 09:42:19 437.432
ZACube-1 23 Feb 09:37:24 09:42:01 82° 104° (ESE) 09:46:31 437.345
SEEDS 23 Feb 09:38:25 09:41:46 24° 292° (WNW) 09:45:05 437.485
O/OREOS (USA 219) 23 Feb 09:42:43 09:47:18 78° 250° (WSW) 09:51:53 437.305
HO-68 23 Feb 09:49:55 09:56:13 35° 298° (WNW) 10:02:30 435.675
DELFI C3 23 Feb 09:53:39 09:57:06 29° 96° (E) 10:00:32 145.870
FO-29 23 Feb 09:54:19 10:00:59 46° 66° (ENE) 10:08:15 435.910
CUBEBUG 2 23 Feb 10:05:22 10:09:04 23° 294° (WNW) 10:12:45 437.445
AIST 2D 23 Feb 10:06:58 10:08:02 11° 64° (ENE) 10:09:07 435.315
UNISAT 6 23 Feb 10:10:44 10:15:12 74° 257° (WSW) 10:19:49 437.425
TIGRISAT 23 Feb 10:11:47 10:16:15 78° 259° (W) 10:20:52 435.000
ISS 23 Feb 10:16:19 10:19:33 52° 331° (NNW) 10:22:48 437.550
POLYITAN 1 23 Feb 10:22:43 10:24:57 14° 63° (ENE) 10:27:12 437.675
NANOSAT C BR1 23 Feb 10:24:40 10:26:45 13° 62° (ENE) 10:28:48 145.865
QB50P2 23 Feb 10:25:11 10:27:46 16° 64° (ENE) 10:30:22 145.880/145.840
AO-73 23 Feb 10:27:43 10:31:49 33° 291° (WNW) 10:35:51 145.935
Oscar 11 23 Feb 10:37:40 10:41:24 29° 291° (WNW) 10:45:06 .
PRISM 23 Feb 10:47:56 10:48:59 11° 270° (W) 10:50:00 437.425
Tancredo 1 23 Feb 10:48:05 10:51:03 31° 337° (NNW) 10:54:00 437.200
UWE-3 23 Feb 10:48:58 10:51:16 14° 299° (WNW) 10:53:35 435.000/436.395/437.385
BUGSAT 1 23 Feb 11:05:40 11:06:59 11° 61° (ENE) 11:08:17 437.445
ZACube-1 23 Feb 11:16:01 11:17:35 12° 300° (WNW) 11:19:08 437.345
YUBILEINY 23 Feb 11:20:37 11:29:27 83° 96° (E) 11:38:17 435.215
DELFI C3 23 Feb 11:28:44 11:31:45 21° 292° (WNW) 11:34:44 145.870
DUCHIFAT 1 23 Feb 11:31:14 11:35:22 62° 74° (ENE) 11:39:33 145.980
AIST 2D 23 Feb 11:37:23 11:40:49 50° 260° (W) 11:44:19 435.315
EO-79 23 Feb 11:39:13 11:43:27 89° 272° (W) 11:47:43 145.935-145.965
FO-29 23 Feb 11:39:36 11:46:03 38° 266° (W) 11:53:07 435.910
ISS 23 Feb 11:54:08 11:56:35 19° 350° (N) 11:59:00 437.550
Oscar 19 23 Feb 11:55:05 11:58:04 16° 60° (ENE) 12:01:02 437.125/150
POLYITAN 1 23 Feb 11:56:06 12:00:15 57° 259° (W) 12:04:28 437.675
NANOSAT C BR1 23 Feb 11:57:48 12:01:56 60° 259° (W) 12:06:09 145.865
QB50P2 23 Feb 11:59:04 12:03:09 49° 260° (W) 12:07:19 145.880/145.840
ESTCUBE 1 23 Feb 12:14:12 12:18:43 75° 103° (ESE) 12:23:10 437.505/2401.250
Gurwin Techsat 1B 23 Feb 12:21:38 12:24:47 16° 59° (ENE) 12:27:55 435.225
Tancredo 1 23 Feb 12:25:52 12:28:04 16° 357° (N) 12:30:15 437.200
BUGSAT 1 23 Feb 12:37:45 12:41:45 67° 258° (WSW) 12:45:51 437.445
DX 1 23 Feb 12:49:02 12:52:39 25° 96° (E) 12:56:13 434.975-435.025
VELOX 1 23 Feb 12:49:28 12:53:50 58° 101° (E) 12:58:10 145.980
AO-85 23 Feb 12:55:25 12:58:07 17° 42° (NE) 13:00:49 145.980
UKube-1 23 Feb 13:05:38 13:09:18 27° 96° (E) 13:12:58 .
DUCHIFAT 1 23 Feb 13:10:01 13:11:27 12° 270° (W) 13:12:54 145.980
SPROUT 23 Feb 13:14:26 13:18:47 89° 265° (W) 13:23:05 437.525
YUBILEINY 23 Feb 13:20:49 13:27:21 23° 297° (WNW) 13:33:55 435.215
50 SAT 23 Feb 13:30:37 13:34:02 56° 286° (WNW) 13:37:26 437.505
ISS 23 Feb 13:31:26 13:33:55 19° 11° (N) 13:36:23 437.550
Oscar 19 23 Feb 13:31:37 13:36:46 73° 257° (WSW) 13:41:56 437.125/150
ESTCUBE 1 23 Feb 13:53:06 13:54:53 12° 299° (WNW) 13:56:41 437.505/2401.250
AO-7 23 Feb 13:55:07 14:02:10 32° 56° (NE) 14:09:13 .
Gurwin Techsat 1B 23 Feb 13:58:47 14:04:05 75° 257° (WSW) 14:09:26 435.225
ITAMSAT 1 23 Feb 14:01:41 14:05:48 24° 63° (ENE) 14:09:56 435.822/435.867
Tancredo 1 23 Feb 14:02:28 14:05:10 24° 18° (NNE) 14:07:52 437.200
DX 1 23 Feb 14:25:00 14:28:49 30° 292° (WNW) 14:32:38 434.975-435.025
VELOX 1 23 Feb 14:27:19 14:29:49 15° 298° (WNW) 14:32:18 145.980
AO-85 23 Feb 14:34:59 14:38:47 51° 241° (WSW) 14:42:38 145.980
UKube-1 23 Feb 14:41:36 14:45:17 28° 292° (WNW) 14:48:58 .
ISS 23 Feb 15:07:38 15:10:54 57° 30° (NNE) 15:14:07 437.550
BEESAT 3 23 Feb 15:23:16 15:26:54 31° 49° (NE) 15:30:30 437.485
ITUPSAT 1 23 Feb 15:28:56 15:33:42 61° 101° (ESE) 15:38:26 437.325
BEESAT 23 Feb 15:36:57 15:41:46 75° 103° (ESE) 15:46:32 436.000
Tancredo 1 23 Feb 15:38:30 15:41:44 74° 217° (SW) 15:44:55 437.200
ITAMSAT 1 23 Feb 15:39:59 15:44:58 46° 261° (W) 15:49:59 435.822/435.867
AO-7 23 Feb 15:46:05 15:54:23 66° 255° (WSW) 16:02:43 .
BEESAT 2 23 Feb 15:56:48 16:00:25 30° 48° (NE) 16:04:00 435.950
PCSat 23 Feb 15:57:53 16:01:03 16° 104° (ESE) 16:04:15 145.827
RS-15 23 Feb 16:06:39 16:12:37 15° 94° (E) 16:18:39 29.354- 29.394
MOZHAYETS 4 23 Feb 16:16:30 16:21:09 73° 103° (ESE) 16:25:42
CUTE-I 23 Feb 16:35:51 16:38:21 14° 57° (ENE) 16:40:52 437.470
ISS 23 Feb 16:44:44 16:47:05 18° 227° (SW) 16:49:25 437.550
BEESAT 3 23 Feb 17:01:03 17:04:23 26° 246° (WSW) 17:07:43 437.485
KKS-1 23 Feb 17:02:30 17:06:54 55° 101° (E) 17:11:18 437.445
ITUPSAT 1 23 Feb 17:08:04 17:11:02 17° 298° (WNW) 17:13:59 437.325
CUBESAT XI-V 23 Feb 17:10:24 17:14:47 42° 98° (E) 17:19:07 437.345
M-CUBED/EXP-1 PRIME 23 Feb 17:16:33 17:18:46 15° 99° (E) 17:21:04 437.505
BEESAT 23 Feb 17:16:34 17:18:55 14° 300° (WNW) 17:21:15 436.000
BEESAT 2 23 Feb 17:34:39 17:38:08 27° 245° (WSW) 17:41:33 435.950
KAITUO 1B 23 Feb 17:35:06 17:38:26 29° 70° (ENE) 17:41:46 145.475/437.950
XW-2F 23 Feb 17:36:14 17:39:45 36° 71° (ENE) 17:43:18 145.980 - 146.000
PCSat 23 Feb 17:38:23 17:43:47 73° 301° (WNW) 17:49:14 145.827
XW-2D 23 Feb 17:39:30 17:43:07 41° 72° (ENE) 17:46:47 145.860 - 145.880
STARS 23 Feb 17:42:15 17:46:41 67° 102° (ESE) 17:51:05 437.465
XW-2B 23 Feb 17:44:25 17:48:06 46° 73° (ENE) 17:51:49 145.730 - 145.750
AO-7 23 Feb 17:46:14 17:48:40 11° 274° (W) 17:51:07 .
XW-2C 23 Feb 17:52:52 17:56:39 60° 74° (ENE) 18:00:28 145.795 - 145.815
MOZHAYETS 4 23 Feb 17:55:33 17:57:41 13° 299° (WNW) 17:59:48
DOVE 4 23 Feb 18:07:26 18:11:34 86° 253° (WSW) 18:15:45 437.250
LilacSat-2 23 Feb 18:07:28 18:11:20 86° 256° (WSW) 18:15:15 437.200
RS-15 23 Feb 18:10:48 18:22:32 69° 116° (ESE) 18:34:44 29.354- 29.394
NUDT-PHONESAT 23 Feb 18:12:00 18:15:45 84° 77° (ENE) 18:19:33 437.300
CUTE-I 23 Feb 18:12:17 18:17:37 90° 76° (ENE) 18:23:01 437.470
XW-2A 23 Feb 18:24:14 18:26:44 19° 68° (ENE) 18:29:15 145.665 - 145.685
HO-68 23 Feb 18:31:11 18:37:44 40° 63° (ENE) 18:44:15 435.675
KKS-1 23 Feb 18:40:19 18:43:01 16° 297° (WNW) 18:45:42 437.445
CUBESAT XI-V 23 Feb 18:48:28 18:51:51 21° 295° (WNW) 18:55:15 437.345
M-CUBED/EXP-1 PRIME 23 Feb 18:49:49 18:53:21 43° 292° (WNW) 18:57:07 437.505
AAUSAT CUBESAT 2 23 Feb 18:52:36 18:53:46 11° 62° (ENE) 18:54:56 437.432
SEEDS 23 Feb 18:54:57 18:58:20 23° 68° (ENE) 19:01:42 437.485
KAITUO 1B 23 Feb 19:09:39 19:12:29 20° 266° (W) 19:15:20 145.475/437.950
XW-2F 23 Feb 19:11:34 19:14:02 16° 268° (W) 19:16:31 145.980 - 146.000
XW-2D 23 Feb 19:15:24 19:17:31 14° 269° (W) 19:19:39 145.860 - 145.880
STARS 23 Feb 19:20:20 19:22:28 13° 299° (WNW) 19:24:36 437.465
XW-2B 23 Feb 19:20:46 19:22:33 13° 269° (W) 19:24:22 145.730 - 145.750
PCSat 23 Feb 19:25:05 19:28:10 15° 322° (NW) 19:31:15 145.827
CUBEBUG 2 23 Feb 19:26:50 19:30:51 35° 70° (ENE) 19:35:00 437.445
CUTE 1.7 + AOD 2 23 Feb 19:28:27 19:32:44 82° 76° (ENE) 19:37:02 437.475
AO-73 23 Feb 19:48:01 19:51:24 22° 66° (ENE) 19:54:50 145.935
XW-2A 23 Feb 19:56:36 19:59:22 23° 264° (W) 20:02:11 145.665 - 145.685
CUTE-I 23 Feb 19:56:47 19:58:22 11° 272° (W) 19:59:59 437.470
Oscar 11 23 Feb 19:57:12 20:00:37 23° 67° (ENE) 20:04:02 .
STRAND 1 23 Feb 20:02:41 20:07:49 64° 102° (ESE) 20:12:55 437.568
UWE-3 23 Feb 20:07:55 20:12:16 61° 74° (ENE) 20:16:48 435.000/436.395/437.385
HO-68 23 Feb 20:18:38 20:25:22 42° 262° (W) 20:32:07 435.675
RS-15 23 Feb 20:24:26 20:35:52 45° 321° (NW) 20:47:38 29.354- 29.394
AAUSAT CUBESAT 2 23 Feb 20:24:29 20:28:39 72° 259° (W) 20:32:49 437.432
SEEDS 23 Feb 20:30:05 20:33:52 31° 264° (W) 20:37:40 437.485
ZACube-1 23 Feb 20:33:15 20:37:39 68° 74° (ENE) 20:42:11 437.345
DELFI C3 23 Feb 20:40:16 20:43:08 20° 67° (ENE) 20:46:01 145.870
CUBEBUG 2 23 Feb 21:04:05 21:07:33 23° 267° (W) 21:11:08 437.445
AO-73 23 Feb 21:23:13 21:27:22 39° 263° (W) 21:31:37 145.935
YUBILEINY 23 Feb 21:30:16 21:38:29 43° 72° (ENE) 21:46:36 435.215
Oscar 11 23 Feb 21:32:36 21:36:33 34° 263° (W) 21:40:33 .
STRAND 1 23 Feb 21:43:06 21:46:28 18° 299° (WNW) 21:49:50 437.568
UWE-3 23 Feb 21:47:00 21:49:10 13° 271° (W) 21:51:22 435.000/436.395/437.385
UNISAT 6 23 Feb 22:02:13 22:05:58 23° 94° (E) 22:09:40 437.425
TIGRISAT 23 Feb 22:03:09 22:06:49 22° 93° (E) 22:10:26 435.000
ZACube-1 23 Feb 22:12:44 22:14:25 12° 272° (W) 22:16:07 437.345
DELFI C3 23 Feb 22:14:08 22:17:43 33° 263° (W) 22:21:19 145.870
O/OREOS (USA 219) 23 Feb 22:20:25 22:21:16 10° 97° (E) 22:22:08 437.305
PRISM 23 Feb 22:24:52 22:28:58 87° 277° (W) 22:33:02 437.425
